This demonstration page uses our WeatherBlox Daily Observations layout. Learn more.

Left ArrowRight Arrow

Hourly Observations for May 6, 2015

Temp ( °F °C ) Dew Point ( °F °C ) Humidity (%) Winds ( mph kmh ) Pressure ( in mb ) Visibility ( mi km ) Precip ( " mm )
12:58 am 00:58 Mostly Cloudy 66 18.9 58 14.5 76 76 SE 10 17 29.97 1015 10 16 0.00 0.00
1:35 am 01:35 Mostly Cloudy with Light Rain 66 19 59 15 78 78 SE 15 24 29.94 1014 10 16 0.00 0.00
1:45 am 01:45 Mostly Cloudy 66 19 61 16 83 83 SE 15 24 29.94 1014 9 14 0.00 0.00
1:53 am 01:53 Mostly Cloudy with Drizzle 64 18 61 16 88 88 SE 15 24 29.94 1014 9 14 0.00 0.00
1:58 am 01:58 Partly Cloudy with Drizzle 65 18.4 61 16.3 88 88 SE 16 26 29.96 1015 10 16 0.01 0.25
2:03 am 02:03 Mostly Clear 64 18 61 16 88 88 SE 13 20 29.94 1014 10 16 0.00 0.00
2:09 am 02:09 Mostly Clear with Light Rain 64 18 63 17 94 94 SE 14 22 29.94 1014 10 16 0.00 0.00
2:47 am 02:47 Clear 63 17 61 16 94 94 SE 10 17 29.91 1013 10 16 0.00 0.00
2:58 am 02:58 Clear 63 17.4 62 16.4 94 94 SE 8 13 29.93 1013 10 16 0.00 0.03
3:58 am 03:58 Mostly Clear 63 17 61 15.9 93 93 E 8 13 29.89 1012 10 16 0.00 0.03
4:58 am 04:58 Mostly Cloudy 63 17 61 16 94 94 E 7 11 29.88 1012 10 16 0.00 0.00
5:39 am 05:39 Mostly Cloudy with Drizzle 63 17 59 15 88 88 ESE 14 22 29.85 1011 10 16 0.00 0.00
5:48 am 05:48 Mostly Cloudy 64 18 59 15 83 83 ESE 13 20 29.85 1011 10 16 0.00 0.00
5:50 am 05:50 Mostly Cloudy with Light Rain 64 18 59 15 83 83 ESE 14 22 29.85 1011 10 16 0.00 0.00
5:58 am 05:58 Mostly Cloudy with Light Rain 64 17.5 60 15.5 88 88 ESE 10 17 29.88 1012 10 16 0.00 0.03
6:45 am 06:45 Sunny with Light Rain 63 17 61 16 94 94 ESE 15 24 29.85 1011 6 10 0.00 0.00
6:58 am 06:58 Sunny with Rain 63 17 60 15.6 92 92 ESE 17 28 29.88 1012 4 6 0.07 1.78
7:07 am 07:07 Sunny 63 17 61 16 94 94 ESE 16 26 29.85 1011 7 11 0.00 0.00
7:14 am 07:14 Partly Cloudy with Light Rain 63 17 61 16 94 94 ESE 16 26 29.85 1011 9 14 0.00 0.00
7:31 am 07:31 Partly Cloudy 63 17 61 16 94 94 ESE 15 24 29.83 1010 10 16 0.00 0.00
7:58 am 07:58 Partly Cloudy 64 17.5 60 15.7 89 89 ESE 15 24 29.85 1011 10 16 0.02 0.51
8:58 am 08:58 Mostly Cloudy 66 18.9 60 15.6 81 81 SE 17 28 29.83 1010 10 16 0.00 0.00
8:59 am 08:59 Mostly Cloudy 66 19 61 16 83 83 SE 18 30 29.80 1009 10 16 0.00 0.00
9:58 am 09:58 Mostly Cloudy 66 18.9 60 15.4 80 80 SSE 17 28 29.83 1010 10 16 0.00 0.00
10:23 am 10:23 Mostly Cloudy 66 19 61 16 83 83 SSE 15 24 29.80 1009 9 14 0.00 0.00
10:58 am 10:58 Mostly Sunny 68 20.1 61 15.9 77 77 SSE 22 35 29.84 1011 10 16 0.00 0.00
11:27 am 11:27 Mostly Cloudy 70 21 61 16 73 73 SSE 20 31 29.83 1010 9 14 0.00 0.00
11:42 am 11:42 Partly Cloudy 70 21 61 16 73 73 SSE 22 35 29.83 1010 9 14 0.00 0.00
11:50 am 11:50 Mostly Cloudy 70 21 61 16 73 73 SSE 17 28 29.83 1010 9 14 0.00 0.00
11:56 am 11:56 Partly Cloudy 70 21 61 16 73 73 SSE 23 37 29.83 1010 9 14 0.00 0.00
11:58 am 11:58 Partly Cloudy 71 21.4 61 16.3 73 73 SSE 20 31 29.84 1011 9 14 0.00 0.00
12:35 pm 12:35 Mostly Cloudy 73 23 61 16 65 65 SSE 22 35 29.77 1008 9 14 0.00 0.00
12:58 pm 12:58 Mostly Cloudy 71 21.4 61 15.9 71 71 SSE 20 31 29.83 1010 10 16 0.00 0.00
1:49 pm 13:49 Cloudy with Light Rain 70 21 61 16 73 73 SSE 23 37 29.80 1009 3 5 0.00 0.00
1:58 pm 13:58 Mostly Cloudy with Light Rain 69 20.5 62 16.8 79 79 SE 20 31 29.83 1010 3 5 0.01 0.25
2:05 pm 14:05 Mostly Cloudy with Light Rain 68 20 63 17 83 83 SE 25 41 29.80 1009 10 16 0.00 0.00
2:09 pm 14:09 Mostly Cloudy 68 20 63 17 83 83 SSE 21 33 29.80 1009 10 16 0.00 0.00
2:58 pm 14:58 Cloudy 70 20.9 60 15.4 71 71 SSE 26 43 29.83 1010 10 16 0.00 0.03
3:58 pm 15:58 Cloudy 70 21.1 60 15.5 71 71 SE 22 35 29.80 1009 10 16 0.01 0.25
4:42 pm 16:42 Mostly Cloudy 72 22 61 16 69 69 SE 20 31 29.71 1006 10 16 0.00 0.00
4:58 pm 16:58 Partly Cloudy 71 21.4 62 16.4 73 73 SE 23 37 29.77 1008 10 16 0.00 0.00
5:58 pm 17:58 Mostly Cloudy 71 21.6 62 16.4 72 72 SE 22 35 29.77 1008 10 16 0.00 0.00
6:58 pm 18:58 Mostly Cloudy 70 21.2 60 15.8 71 71 SSE 23 37 29.76 1008 10 16 0.00 0.00
7:58 pm 19:58 Cloudy 69 20.7 59 15.2 71 71 SE 20 31 29.75 1007 10 16 0.00 0.00
8:58 pm 20:58 Partly Cloudy 68 20 59 15 73 73 ESE 18 30 29.75 1007 10 16 0.00 0.00
9:09 pm 21:09 Mostly Clear with Light Rain 68 20 59 15 73 73 ESE 21 33 29.71 1006 10 16 0.00 0.00
9:55 pm 21:55 Mostly Cloudy with Thunderstorms 66 19 61 16 83 83 ESE 16 26 29.71 1006 10 16 0.00 0.00
9:58 pm 21:58 Mostly Cloudy with Thunderstorms 66 18.9 61 16 83 83 SE 18 30 29.75 1007 10 16 0.00 0.03
10:10 pm 22:10 Mostly Cloudy with Thunderstorms 66 19 61 16 83 83 ESE 17 28 29.71 1006 10 16 0.00 0.00
10:58 pm 22:58 Mostly Cloudy with Thunderstorms 67 19.5 62 16.4 82 82 SE 9 15 29.72 1007 7 11 0.03 0.76
11:39 pm 23:39 Mostly Cloudy with Light Rain and Scattered Storms 66 19 63 17 88 88 SSE 10 17 29.71 1006 6 10 0.00 0.00
11:51 pm 23:51 Mostly Cloudy with Thunderstorms 66 19 63 17 88 88 VRB 5 7 29.71 1006 5 8 0.00 0.00
11:58 pm 23:58 Mostly Cloudy with Thunderstorms 65 18.5 62 16.6 89 89 SE 5 7 29.72 1007 6 10 0.15 3.81

Powered by AerisWeather